STARLINK-11450 [DTC] (62518 NORAD) Tracking and Keplerian Element Data

This shows tracking and keplerian element data for the satellite.

Feedback or suggestion? Click here.




ElementValue
Catalog62518
NameSTARLINK-11450 [DTC]
Epoch Orbit543
Epoch Day35.17817195
Epoch Year2025
RAAN313.6802
Inclination42.9979
Eccentricity0.0001976
Argument of Perigee262.7772
Mean Anonmoly97.2874
Mean Motion15.77858212
Decay Rate2.176E-05
L11 62518U 25004H 25035.17817195 .00002176 00000+0 15367-4 0 9998
L22 62518 42.9979 313.6802 0001976 262.7772 97.2874 15.77858212 5438



Live tracking and technical data element details for STARLINK-11450 [DTC] (NORAD 62518). STARLINK-11450 [DTC] can be tracked NOW for your location showing map with azimuth and elevation plus other details from your city location.







IsCatalogInMostPopularTable: catalog: 62518, numindb: 12
Update: records affected: 1



GetName: 62518 STARLINK-11450 [DTC]

Hit Count: updated at: Mon, 19 May 2025 03:22:20 GMT